sat.trackr.live / text

‹ back to catalog

STARLINK-34548

NORAD 64716 · 2025-142W

PAYLOAD ACTIVE UNKNOWN

§ Identity

Operator
Country
US
Launch date
2025-06-28
Launch site
AFWTR
Launch vehicle
Mass (kg)
RCS (m²)

Purposes: comms

External: N2YO · Heavens-Above · Gunter

§ Orbital elements

Epoch: 2026-05-25T04:42:20.472192Z

Period
96.11 min
Inclination
69.9995°
Eccentricity
0.0004027
Mean motion
14.98339844 rev/d
Perigee alt
569.2 km
Apogee alt
574.8 km
Semi-major
6,950.2 km
B*
3.5296e-4
RAAN
121.4378°
Arg perigee
266.2079°
Mean anomaly
93.8619°
Rev number
5,092

§ Raw data

STARLINK-345481 64716U 25142W   26145.19607028  .00004122  00000+0  35296-3 0  99952 64716  69.9995 121.4378 0004027 266.2079  93.8619 14.98339844 50929

JSON: /api/v1/satellites/64716 · /tle

For live sub-satellite position, see the globe view (requires WebGL).

§ Visibility from observer

Set your observer location to see the next 7 days of passes ≥ 10°. The values pass through the URL so the page stays shareable.

No JS? Fill the form by hand. The geolocation button needs JavaScript.